Voltar ao catálogo

ONEWEB-0680

AtivoComunicaçõesPO
NORAD 56716·PAYLOAD·🇬🇧 United Kingdom

Lançado May 20, 2023 de Vandenberg Space Force Base

Loading…

Próximas Passagens (próximas 24 horas)

TLE

AtualizadoSource: CelesTrak SupGP

Época: Sep 14, 2026, 17:28 UTC

1 56716C 23068G   26257.72795556  .00001064  00000+0  25793-2 0  2577
2 56716  87.9283 226.1527 0001833  97.8995 297.9062 13.21824108    17

Acompanhe ONEWEB-0680 em tempo real com AllMySat

Download on the App Store